Weather Roundup
Issued by NWS Chicago, IL

Home | Current Version | Previous Version | Text Only | Print | Product List | Glossary On
Versions: 1 2 3 4 5 6 7 8 9 10 11 12 13 14 15 16 17 18 19 20 21 22 23 24 25 26 27 28 29 30 31 32 33 34 35 36 37 38 39 40 41 42 43 44 45 46 47 48 49 50
000
NZUS59 KLOT 210512
HRRLOT

CHICAGO AREA WEATHER ROUNDUP
NATIONAL WEATHER SERVICE CHICAGO/ROMEOVILLE IL
1100 PM CST MON FEB 20 2017

NOTE: "FAIR" INDICATES FEW OR NO CLOUDS BELOW 12,000 FEET WITH NO
SIGNIFICANT WEATHER AND/OR OBSTRUCTIONS TO VISIBILITY.

* THESE STATIONS ARE NOT UNDER NWS QUALITY CONTROL. THEY ALSO MAY NOT
  REPORT WEATHER SUCH AS PRECIPITATION OR FOG.

ILZ005-006-012>014-019>023-210600-
NORTHEAST ILLINOIS

CITY           SKY/WX    TMP DP  RH WIND       PRES   REMARKS
OHARE          CLOUDY    60  45  57 S16       29.90F
MIDWAY         MOCLDY    60  44  55 S13       29.92S
AURORA         CLOUDY    60  48  64 S13       29.91S
LANSING*       CLOUDY    57  48  73 S12       29.94S
JOLIET*        CLOUDY    58  47  67 SE8       29.92S
WAUKEGAN       CLOUDY    54  43  66 S8        29.89S
DUPAGE AIRPORT CLOUDY    58  45  62 S8        29.90S
WHEELING       MOCLDY    59  44  57 S12       29.92S
KANKAKEE*      CLOUDY    56  46  70 SE9       29.94S
MORRIS*        CLOUDY    58  47  68 S7        29.90F
LEWIS AIRPORT* CLOUDY    56  49  77 S9        29.92R
NORTHERLY ISL    N/A     58  43  57 S13         N/A
$$

WIZ051-052-058>065-066-070>072-210600-
SOUTHEAST WISCONSIN

CITY           SKY/WX    TMP DP  RH WIND       PRES   REMARKS
MILWAUKEE      CLOUDY    56  42  59 S10       29.88F
KENOSHA*       CLOUDY    57  45  64 S8        29.89S
RACINE*        CLOUDY    50  40  68 S13       29.90F
WAUKESHA       CLOUDY    55  45  67 SW7       29.90R
WEST BEND      CLOUDY    54  45  71 S7        29.88R
$$

INZ001>003-010>013-019-020-210600-
NORTHWEST INDIANA

CITY           SKY/WX    TMP DP  RH WIND       PRES   REMARKS
GARY*          CLOUDY    60  45  56 SE10G17   29.93F
MICHIGAN CITY* NOT AVBL
RENSSELAER*    NOT AVBL
VALPARAISO     CLOUDY    57  47  69 S9        29.96F
$$

LMZ740>746-210600-
SOUTHERN LAKE MICHIGAN

STATION/POSITION TIME  SKY/WX   TEMP WIND        PRES    VSBY
                                AIR  DIR/SP/G
                 (UTC)          (F)  (DEG/KT/KT) (MB)    (MI)
HARRISON CRIB    0440            51  170/ 18/ 19   N/A
BURNHAM HARBOR   0500            58  160/  7/ 15   N/A
CALUMET HARBOR   0442            59  160/ 11/ 15 1012.7F
BURNS HARBOR     0440            59  170/ 15/ 26 1014.2F
MICHIGAN CITY    0440            57  130/ 16/ 19   N/A
$$

ABBREVIATIONS USED IN REMARKS
   TC - TEMPERATURE IN CELSIUS
  WCI - WIND CHILL INDEX
   HX - HEAT INDEX
  VSB - VISIBILITY
$$



USA.gov is the U.S. government's official web portal to all federal, state and local government web resources and services.